This is the latest recevied weather packets stored in our database for station/object N3TJJ-2. If no packets are shown the sender has not sent any weather packets the latest 1 day(s).
| Time | Temp. | Humidity | Pressure | Rain* | Wind** | Luminosity | Snow |
|---|---|---|---|---|---|---|---|
| 1778099730 | 18.89° C | 80% | 1008.1 hPa | 0 mm | - | - | - |
| 1778097708 | 18.33° C | 80% | 1008.1 hPa | 0 mm | - | - | - |
| 1778095757 | 18.89° C | 77% | 1008.4 hPa | 0 mm | - | - | - |
| 1778094820 | 17.22° C | 63% | 1008.5 hPa | 0 mm | - | - | - |
| 1778093598 | 17.22° C | 35% | 1008.5 hPa | 0 mm | - | - | - |
| 1778091799 | 16.11° C | 26% | 1008.9 hPa | 0 mm | - | - | - |
| 1778090721 | 15.56° C | 27% | 1009.2 hPa | 0 mm | - | - | - |
| 1778089637 | 15.56° C | 27% | 1009.3 hPa | 0 mm | - | - | - |
| 1778088561 | 15.56° C | 27% | 1009.1 hPa | 0 mm | - | - | - |
| 1778087481 | 15.56° C | 27% | 1009 hPa | 0 mm | - | - | - |
| 1778086767 | 15.56° C | 27% | 1009.1 hPa | 0 mm | - | - | - |
| 1778086398 | 15° C | 28% | 1009.2 hPa | 0.25 mm | - | - | - |
| 1778085322 | 15.56° C | 28% | 1009.2 hPa | 0.51 mm | - | - | - |
| 1778084242 | 15.56° C | 28% | 1009.4 hPa | 0.76 mm | - | - | - |
| 1778083518 | 15.56° C | 28% | 1009 hPa | 1.02 mm | - | - | - |
| 1778083177 | 15.56° C | 28% | 1008.8 hPa | 1.27 mm | - | - | - |
| 1778082441 | 15.56° C | 28% | 1009 hPa | 1.52 mm | - | - | - |
| 1778082082 | 15.56° C | 28% | 1009.4 hPa | 1.52 mm | - | - | - |
| 1778081357 | 15.56° C | 29% | 1009.9 hPa | 1.78 mm | - | - | - |
| 1778080289 | 15° C | 29% | 1010.2 hPa | 2.03 mm | - | - | - |
| 1778079201 | 15° C | 30% | 1010.3 hPa | 1.78 mm | - | - | - |
| 1778078124 | 15° C | 30% | 1009.9 hPa | 1.52 mm | - | - | - |
| 1778075967 | 15° C | 33% | 1009.9 hPa | 1.27 mm | - | - | - |
| 1778074891 | 15° C | 34% | 1010.1 hPa | 0.76 mm | - | - | - |
| 1778073799 | 15° C | 35% | 1010.1 hPa | 0.25 mm | - | - | - |
* Rain latest hour (hover to see other rain measurements)
** Current wind speed in m/s (hover to see current wind gust speed)